VE6HFD-WX Weather Reports


time (UTC)temp
C
wind
direction
speed
KPH
gust
KPH
rain 1hr
cm
rain 24hr
cm
rain mn
cm
humidity
%
barometer
mb
20260507142806 11 278 16.1 19.3 0.00 0.00 0.00 64 1007.8
20260507142236 11 278 14.5 20.9 0.00 0.00 0.00 66 1007.7
20260507141736 10 270 16.1 22.5 0.00 0.00 0.00 66 1007.7
20260507141236 10 270 16.1 22.5 0.00 0.00 0.00 66 1007.7
20260507140706 10 272 16.1 25.7 0.00 0.00 0.00 67 1007.7
20260507140206 10 270 19.3 25.7 0.00 0.00 0.00 67 1007.7
20260507135706 10 268 19.3 27.4 0.00 0.00 0.00 67 1007.7
20260507135136 10 276 22.5 25.7 0.00 0.00 0.00 68 1007.8
20260507134636 10 276 20.9 27.4 0.00 0.00 0.00 69 1007.8
20260507134106 10 276 19.3 22.5 0.00 0.00 0.00 69 1007.7
20260507133536 10 265 14.5 14.5 0.00 0.00 0.00 69 1007.8
20260507133036 10 282 14.5 19.3 0.00 0.00 0.00 70 1007.9
20260507132536 10 275 16.1 25.7 0.00 0.00 0.00 70 1007.7
20260507132036 10 268 20.9 24.1 0.00 0.00 0.00 70 1007.7
20260507131536 10 272 14.5 19.3 0.00 0.00 0.00 70 1007.6
20260507131006 10 265 14.5 22.5 0.00 0.00 0.00 70 1007.6
20260507130506 10 278 14.5 20.9 0.00 0.00 0.00 71 1007.7
20260507125936 9 265 12.9 16.1 0.00 0.00 0.00 73 1007.7
20260507125436 9 263 12.9 19.3 0.00 0.00 0.00 73 1007.6
20260507124936 8 270 12.9 19.3 0.00 0.00 0.00 73 1007.8
20260507124436 8 270 9.7 12.9 0.00 0.00 0.00 74 1007.8
20260507123906 8 266 12.9 19.3 0.00 0.00 0.00 74 1007.7
20260507123406 8 266 12.9 16.1 0.00 0.00 0.00 75 1007.7
20260507122836 8 273 12.9 14.5 0.00 0.00 0.00 74 1007.8
20260507122336 8 273 11.3 14.5 0.00 0.00 0.00 74 1007.8
20260507121806 8 287 8.0 11.3 0.00 0.00 0.00 74 1007.8
20260507121236 8 291 4.8 4.8 0.00 0.00 0.00 74 1007.9
20260507120736 8 291 8.0 8.0 0.00 0.00 0.00 74 1007.8
20260507120236 8 293 9.7 11.3 0.00 0.00 0.00 75 1007.8
20260507115706 8 284 12.9 16.1 0.00 0.00 0.00 75 1007.8
20260507115136 7 267 12.9 14.5 0.00 0.00 0.00 75 1007.7
20260507114606 7 294 8.0 11.3 0.00 0.00 0.00 74 1007.8
20260507114036 7 294 8.0 8.0 0.00 0.00 0.00 73 1007.9
20260507113536 7 296 8.0 11.3 0.00 0.00 0.00 72 1007.9
20260507113036 7 293 4.8 8.0 0.00 0.00 0.00 73 1007.9
20260507112506 7 295 8.0 11.3 0.00 0.00 0.00 73 1007.9
20260507112006 8 292 9.7 11.3 0.00 0.00 0.00 72 1007.8
20260507111436 8 291 11.3 12.9 0.00 0.00 0.00 73 1007.8
20260507110936 8 276 11.3 12.9 0.00 0.00 0.00 72 1007.7
20260507110406 8 282 12.9 16.1 0.00 0.00 0.00 73 1007.8
20260507105836 7 276 11.3 14.5 0.00 0.00 0.00 72 1007.8
20260507105307 7 285 11.3 14.5 0.00 0.00 0.00 73 1007.9
20260507104806 7 271 11.3 14.5 0.00 0.00 0.00 73 1007.9
20260507104236 7 273 11.3 12.9 0.00 0.00 0.00 73 1007.9
20260507103706 6 268 9.7 12.9 0.00 0.00 0.00 72 1007.9
20260507103206 6 278 4.8 9.7 0.00 0.00 0.00 70 1007.8
20260507102636 6 278 4.8 4.8 0.00 0.00 0.00 69 1007.9
20260507102106 6 277 3.2 4.8 0.00 0.00 0.00 69 1008.0
20260507101606 6 277 1.6 3.2 0.00 0.00 0.00 68 1008.1
20260507101036 6 275 1.6 1.6 0.00 0.00 0.00 66 1008.1
20260507100536 6 275 1.6 3.2 0.00 0.00 0.00 65 1008.1
20260507100006 6 275 1.6 3.2 0.00 0.00 0.00 69 1008.1
20260507095436 6 267 3.2 4.8 0.00 0.00 0.00 67 1008.1
20260507094936 5 225 1.6 3.2 0.00 0.00 0.00 66 1008.2
20260507094406 5 215 0.0 1.6 0.00 0.00 0.00 63 1008.2
20260507093836 5 215 0.0 3.2 0.00 0.00 0.00 62 1008.2
20260507093306 5 215 0.0 0.0 0.00 0.00 0.00 62 1008.2
20260507092806 5 215 1.6 3.2 0.00 0.00 0.00 61 1008.2
20260507092236 5 215 1.6 3.2 0.00 0.00 0.00 60 1008.2
20260507091706 5 215 1.6 3.2 0.00 0.00 0.00 60 1008.2
20260507091136 5 215 3.2 4.8 0.00 0.00 0.00 61 1008.2
20260507090606 5 227 4.8 8.0 0.00 0.00 0.00 60 1008.2
20260507090106 5 226 3.2 8.0 0.00 0.00 0.00 62 1008.2
20260507085536 4 213 8.0 9.7 0.00 0.00 0.00 65 1008.1
20260507085006 5 215 8.0 8.0 0.00 0.00 0.00 64 1008.2
20260507084506 4 210 9.7 9.7 0.00 0.00 0.00 65 1008.2
20260507084006 5 193 8.0 9.7 0.00 0.00 0.00 64 1008.2
20260507083436 5 187 3.2 4.8 0.00 0.00 0.00 64 1008.2
20260507082936 5 195 8.0 9.7 0.00 0.00 0.00 64 1008.3
20260507082406 5 190 8.0 9.7 0.00 0.00 0.00 64 1008.3
20260507081836 5 180 4.8 4.8 0.00 0.00 0.00 63 1008.3
20260507081337 6 169 8.0 9.7 0.00 0.00 0.00 63 1008.2
20260507080836 6 158 4.8 12.9 0.00 0.00 0.00 63 1008.0
20260507080336 6 158 4.8 8.0 0.00 0.00 0.00 62 1008.0
20260507075806 6 163 8.0 11.3 0.00 0.00 0.00 62 1008.0
20260507075236 6 160 8.0 11.3 0.00 0.00 0.00 62 1007.8
20260507074706 6 157 8.0 9.7 0.00 0.00 0.00 60 1008.0
20260507074206 6 130 4.8 8.0 0.00 0.00 0.00 59 1008.1
20260507073706 6 128 4.8 4.8 0.00 0.00 0.00 58 1008.3
20260507073136 7 3 0.0 0.0 0.00 0.00 0.00 55 1008.3
20260507072606 7 3 0.0 0.0 0.00 0.00 0.00 55 1008.3
20260507072107 7 7 0.0 0.0 0.00 0.00 0.00 55 1008.2
20260507071606 7 158 8.0 8.0 0.00 0.00 0.00 55 1008.2
20260507071036 7 158 8.0 8.0 0.00 0.00 0.00 55 1008.4
20260507070536 7 157 8.0 8.0 0.00 0.00 0.00 54 1008.5
20260507070010 8 153 8.0 11.3 0.00 0.00 0.00 53 1008.5
20260507065506 8 157 8.0 9.7 0.00 0.00 0.00 50 1008.5
20260507064936 8 159 9.7 11.3 0.00 0.00 0.00 48 1008.5
20260507064436 8 153 11.3 12.9 0.00 0.00 0.00 48 1008.6
20260507063906 8 157 11.3 14.5 0.00 0.00 0.00 53 1008.8
20260507063406 8 150 8.0 8.0 0.00 0.00 0.00 55 1008.8
20260507062836 7 115 3.2 4.8 0.00 0.00 0.00 57 1008.8
20260507062336 8 104 4.8 4.8 0.00 0.00 0.00 56 1008.8
20260507061836 8 104 3.2 4.8 0.00 0.00 0.00 55 1008.9
20260507061336 8 104 3.2 4.8 0.00 0.00 0.00 54 1009.0
20260507060836 7 104 1.6 3.2 0.00 0.00 0.00 55 1009.0
20260507060306 7 104 3.2 4.8 0.00 0.00 0.00 57 1008.9
20260507055806 7 104 0.0 1.6 0.00 0.00 0.00 59 1008.9
20260507055236 7 104 3.2 4.8 0.00 0.00 0.00 56 1008.7
20260507054736 7 104 1.6 3.2 0.00 0.00 0.00 55 1008.7
20260507054206 8 104 3.2 4.8 0.00 0.00 0.00 56 1008.7
20260507053636 8 104 0.0 3.2 0.00 0.00 0.00 55 1008.7
20260507053106 7 104 1.6 3.2 0.00 0.00 0.00 55 1008.6
20260507052536 7 104 3.2 4.8 0.00 0.00 0.00 57 1008.5
20260507052036 8 104 1.6 3.2 0.00 0.00 0.00 58 1008.4
20260507051506 8 137 4.8 8.0 0.00 0.00 0.00 56 1008.3
20260507050936 8 137 3.2 4.8 0.00 0.00 0.00 58 1008.3
20260507050406 8 137 3.2 4.8 0.00 0.00 0.00 57 1008.3
20260507045836 8 137 1.6 3.2 0.00 0.00 0.00 57 1008.3
20260507045336 8 137 4.8 4.8 0.00 0.00 0.00 55 1008.2
20260507044806 8 137 3.2 4.8 0.00 0.00 0.00 55 1008.2
20260507044306 8 137 4.8 4.8 0.00 0.00 0.00 54 1008.1
20260507043736 9 131 8.0 11.3 0.00 0.00 0.00 53 1008.1
20260507043206 9 138 8.0 8.0 0.00 0.00 0.00 52 1008.1
20260507042636 9 138 4.8 8.0 0.00 0.00 0.00 53 1008.1
20260507042136 9 130 4.8 4.8 0.00 0.00 0.00 52 1008.0
20260507041636 9 123 9.7 11.3 0.00 0.00 0.00 52 1008.0
20260507041106 9 103 8.0 11.3 0.00 0.00 0.00 53 1008.0
20260507040606 10 103 4.8 4.8 0.00 0.00 0.00 52 1008.0
20260507040036 10 103 4.8 9.7 0.00 0.00 0.00 52 1008.0
20260507035506 10 79 3.2 8.0 0.00 0.00 0.00 51 1007.8
20260507034936 10 104 8.0 9.7 0.00 0.00 0.00 47 1007.7
20260507034436 11 135 11.3 14.5 0.00 0.00 0.00 48 1007.7
20260507033906 11 169 9.7 11.3 0.00 0.00 0.00 47 1007.6
20260507033406 10 174 11.3 11.3 0.00 0.00 0.00 49 1007.5
20260507032836 10 167 11.3 12.9 0.00 0.00 0.00 48 1007.7
20260507032306 11 162 8.0 9.7 0.00 0.00 0.00 46 1007.8
20260507031806 11 131 4.8 8.0 0.00 0.00 0.00 46 1008.0
20260507031306 11 121 8.0 11.3 0.00 0.00 0.00 44 1008.1
20260507030736 11 110 9.7 9.7 0.00 0.00 0.00 41 1008.2
20260507030206 11 101 8.0 4.8 0.00 0.00 0.00 40 1008.1
20260507025636 12 101 8.0 9.7 0.00 0.00 0.00 40 1008.0
20260507025136 12 101 8.0 11.3 0.00 0.00 0.00 41 1008.0
20260507024606 12 100 3.2 4.8 0.00 0.00 0.00 41 1008.0
20260507024106 12 99 8.0 9.7 0.00 0.00 0.00 40 1007.9
20260507023536 12 104 11.3 12.9 0.00 0.00 0.00 39 1007.7
20260507023036 12 104 9.7 12.9 0.00 0.00 0.00 38 1007.8
20260507022506 12 102 8.0 11.3 0.00 0.00 0.00 39 1007.8
20260507021936 13 100 8.0 11.3 0.00 0.00 0.00 38 1007.7
20260507021436 13 105 9.7 11.3 0.00 0.00 0.00 38 1007.4
20260507020906 13 96 4.8 4.8 0.00 0.00 0.00 37 1007.5
20260507020336 13 98 8.0 4.8 0.00 0.00 0.00 36 1007.3
20260507015807 13 104 11.3 16.1 0.00 0.00 0.00 35 1007.4
20260507015237 14 88 4.8 9.7 0.00 0.00 0.00 35 1007.5
20260507014737 14 107 11.3 14.5 0.00 0.00 0.00 34 1007.4
20260507014207 14 99 8.0 11.3 0.00 0.00 0.00 34 1007.4
20260507013707 15 106 11.3 12.9 0.00 0.00 0.00 33 1007.4
20260507013137 15 105 9.7 12.9 0.00 0.00 0.00 33 1007.4
20260507012607 15 107 9.7 11.3 0.00 0.00 0.00 33 1007.3
20260507012037 15 110 14.5 16.1 0.00 0.00 0.00 31 1007.3
20260507011537 15 111 12.9 16.1 0.00 0.00 0.00 31 1007.4
20260507011007 15 111 12.9 14.5 0.00 0.00 0.00 32 1007.4
20260507010507 15 114 12.9 16.1 0.00 0.00 0.00 32 1007.3
20260507010007 15 110 14.5 19.3 0.00 0.00 0.00 31 1007.3
20260507005507 15 109 16.1 20.9 0.00 0.00 0.00 32 1007.2
20260507005007 15 101 12.9 19.3 0.00 0.00 0.00 30 1007.1
20260507004507 15 107 14.5 19.3 0.00 0.00 0.00 31 1007.1
20260507003937 15 104 16.1 20.9 0.00 0.00 0.00 31 1007.2
20260507003437 15 106 11.3 16.1 0.00 0.00 0.00 30 1007.1
20260507002907 15 91 9.7 12.9 0.00 0.00 0.00 31 1007.1
20260507002337 16 107 16.1 19.3 0.00 0.00 0.00 30 1007.1
20260507001837 16 109 14.5 20.9 0.00 0.00 0.00 30 1007.1
20260507001307 16 111 19.3 24.1 0.00 0.00 0.00 30 1007.1
20260507000807 16 107 16.1 19.3 0.00 0.00 0.00 29 1007.2
20260507000237 16 96 8.0 11.3 0.00 0.00 0.00 29 1007.3
20260506235737 16 123 9.7 11.3 0.00 0.00 0.00 28 1007.3
20260506235207 16 118 11.3 16.1 0.00 0.00 0.00 29 1007.3
20260506234707 16 122 12.9 14.5 0.00 0.00 0.00 28 1007.2
20260506234137 16 113 12.9 16.1 0.00 0.00 0.00 28 1007.2
20260506233637 16 96 8.0 16.1 0.00 0.00 0.00 29 1007.3
20260506233137 16 112 12.9 16.1 0.00 0.00 0.00 29 1007.3
20260506232607 16 116 14.5 19.3 0.00 0.00 0.00 28 1007.4
20260506232107 16 97 8.0 9.7 0.00 0.00 0.00 28 1007.5
20260506231537 16 87 4.8 8.0 0.00 0.00 0.00 29 1007.7
20260506231007 16 102 9.7 14.5 0.00 0.00 0.00 30 1007.8
20260506230507 16 113 9.7 14.5 0.00 0.00 0.00 28 1007.9
20260506225937 16 108 11.3 12.9 0.00 0.00 0.00 28 1008.0
20260506225437 16 120 14.5 19.3 0.00 0.00 0.00 28 1008.1
20260506224937 16 133 11.3 14.5 0.00 0.00 0.00 29 1008.0
20260506224407 16 142 9.7 16.1 0.00 0.00 0.00 29 1008.2
20260506223837 16 123 9.7 12.9 0.00 0.00 0.00 28 1008.2
20260506223307 16 154 9.7 12.9 0.00 0.00 0.00 29 1008.4
20260506222807 16 109 8.0 11.3 0.00 0.00 0.00 28 1008.4
20260506222237 16 136 11.3 14.5 0.00 0.00 0.00 28 1008.4
20260506221737 16 143 11.3 20.9 0.00 0.00 0.00 28 1008.4
20260506221207 16 143 3.2 4.8 0.00 0.00 0.00 27 1008.4
20260506220707 17 153 9.7 14.5 0.00 0.00 0.00 28 1008.5
20260506220137 17 145 9.7 16.1 0.00 0.00 0.00 27 1008.5
20260506215607 17 169 14.5 19.3 0.00 0.00 0.00 28 1008.6
20260506215107 17 166 12.9 20.9 0.00 0.00 0.00 27 1008.7
20260506214537 17 202 3.2 4.8 0.00 0.00 0.00 27 1008.8
20260506214007 16 172 9.7 11.3 0.00 0.00 0.00 28 1008.9
20260506213507 16 216 14.5 19.3 0.00 0.00 0.00 27 1009.0
20260506212937 16 170 9.7 11.3 0.00 0.00 0.00 27 1009.0
20260506212437 16 186 12.9 14.5 0.00 0.00 0.00 28 1009.1
20260506211907 16 110 8.0 11.3 0.00 0.00 0.00 28 1009.1
20260506211407 16 149 11.3 19.3 0.00 0.00 0.00 29 1009.2
20260506210837 15 123 22.5 25.7 0.00 0.00 0.00 28 1009.3
20260506210337 16 123 19.3 27.4 0.00 0.00 0.00 28 1009.4
20260506205807 16 112 11.3 19.3 0.00 0.00 0.00 28 1009.5
20260506205237 15 169 12.9 14.5 0.00 0.00 0.00 28 1009.6
20260506204707 15 161 12.9 22.5 0.00 0.00 0.00 30 1009.7
20260506204137 15 136 19.3 24.1 0.00 0.00 0.00 28 1009.7
20260506203637 15 147 14.5 20.9 0.00 0.00 0.00 29 1009.7
20260506203107 15 149 16.1 24.1 0.00 0.00 0.00 29 1009.8
20260506202607 15 132 20.9 32.2 0.00 0.00 0.00 28 1009.8
20260506202107 16 145 20.9 32.2 0.00 0.00 0.00 29 1009.9
20260506201537 15 126 19.3 29.0 0.00 0.00 0.00 29 1010.0
20260506201037 15 151 9.7 12.9 0.00 0.00 0.00 29 1010.1
20260506200537 15 162 8.0 14.5 0.00 0.00 0.00 29 1010.2
20260506200007 15 159 12.9 19.3 0.00 0.00 0.00 30 1010.3
20260506195507 15 145 16.1 19.3 0.00 0.00 0.00 29 1010.3
20260506194937 15 142 14.5 22.5 0.00 0.00 0.00 29 1010.4
20260506194437 15 155 8.0 14.5 0.00 0.00 0.00 29 1010.5
20260506193937 14 146 12.9 32.2 0.00 0.00 0.00 30 1010.5
20260506193437 14 159 14.5 19.3 0.00 0.00 0.00 31 1010.6
20260506192907 15 158 9.7 12.9 0.00 0.00 0.00 30 1010.6
20260506192407 14 165 11.3 16.1 0.00 0.00 0.00 30 1010.8
20260506191837 14 164 8.0 16.1 0.00 0.00 0.00 31 1010.8
20260506191337 14 179 9.7 11.3 0.00 0.00 0.00 30 1010.8
20260506190807 13 147 11.3 20.9 0.00 0.00 0.00 30 1010.9
20260506190307 13 130 19.3 27.4 0.00 0.00 0.00 31 1010.9
20260506185807 13 150 14.5 19.3 0.00 0.00 0.00 30 1011.1
20260506185307 13 158 11.3 22.5 0.00 0.00 0.00 31 1011.2
20260506184807 13 154 20.9 24.1 0.00 0.00 0.00 31 1011.2
20260506184237 13 170 14.5 19.3 0.00 0.00 0.00 32 1011.3
20260506183737 13 172 11.3 19.3 0.00 0.00 0.00 32 1011.4
20260506183237 13 163 14.5 19.3 0.00 0.00 0.00 33 1011.5
20260506182707 12 161 16.1 22.5 0.00 0.00 0.00 33 1011.5
20260506182137 12 152 14.5 24.1 0.00 0.00 0.00 33 1011.6
20260506181607 12 145 12.9 19.3 0.00 0.00 0.00 33 1011.7
20260506181107 12 159 12.9 16.1 0.00 0.00 0.00 34 1011.8
20260506180537 12 166 14.5 20.9 0.00 0.00 0.00 35 1011.9
20260506180037 12 165 12.9 22.5 0.00 0.00 0.00 34 1011.9
20260506175507 12 177 16.1 22.5 0.00 0.00 0.00 36 1012.0
20260506175007 11 139 16.1 25.7 0.00 0.00 0.00 36 1012.1
20260506174437 11 178 14.5 19.3 0.00 0.00 0.00 37 1012.2
20260506173907 11 165 11.3 22.5 0.00 0.00 0.00 37 1012.3
20260506173407 11 141 19.3 27.4 0.00 0.00 0.00 38 1012.4
20260506172837 11 160 14.5 19.3 0.00 0.00 0.00 36 1012.5
20260506172337 11 163 12.9 14.5 0.00 0.00 0.00 37 1012.6
20260506171807 11 147 12.9 19.3 0.00 0.00 0.00 37 1012.7
20260506171237 11 158 14.5 20.9 0.00 0.00 0.00 38 1012.8
20260506170707 11 159 19.3 27.4 0.00 0.00 0.00 39 1012.8
20260506170207 10 160 12.9 19.3 0.00 0.00 0.00 38 1013.0
20260506165637 10 159 16.1 19.3 0.00 0.00 0.00 38 1013.2
20260506165107 10 156 16.1 22.5 0.00 0.00 0.00 38 1013.2
20260506164537 10 173 14.5 19.3 0.00 0.00 0.00 39 1013.2
20260506164037 10 156 20.9 24.1 0.00 0.00 0.00 40 1013.3
20260506163507 10 166 16.1 19.3 0.00 0.00 0.00 40 1013.3
20260506163007 10 154 14.5 24.1 0.00 0.00 0.00 42 1013.2
20260506162437 9 156 19.3 24.1 0.00 0.00 0.00 40 1013.4
20260506161937 9 155 14.5 20.9 0.00 0.00 0.00 42 1013.5
20260506161437 9 160 12.9 20.9 0.00 0.00 0.00 42 1013.5
20260506160907 9 156 12.9 20.9 0.00 0.00 0.00 43 1013.5
20260506160407 9 168 16.1 22.5 0.00 0.00 0.00 40 1013.7
20260506155837 8 184 12.9 20.9 0.00 0.00 0.00 42 1013.8
20260506155337 8 161 16.1 19.3 0.00 0.00 0.00 46 1013.8
20260506154807 8 137 16.1 22.5 0.00 0.00 0.00 48 1013.8
20260506154307 8 144 14.5 20.9 0.00 0.00 0.00 49 1014.0
20260506153807 7 146 12.9 19.3 0.00 0.00 0.00 50 1014.0
20260506153307 7 155 14.5 19.3 0.00 0.00 0.00 51 1014.2
20260506152807 7 153 14.5 22.5 0.00 0.00 0.00 53 1014.2
20260506152237 6 157 14.5 19.3 0.00 0.00 0.00 56 1014.3
20260506151737 6 151 12.9 19.3 0.00 0.00 0.00 58 1014.4
20260506151237 6 144 14.5 20.9 0.00 0.00 0.00 58 1014.5
20260506150737 5 145 12.9 19.3 0.00 0.00 0.00 59 1014.6
20260506150207 5 153 12.9 19.3 0.00 0.00 0.00 62 1014.6
20260506145637 4 159 11.3 11.3 0.00 0.00 0.00 65 1014.7
20260506145137 4 147 11.3 14.5 0.00 0.00 0.00 65 1014.9
20260506144607 3 141 12.9 16.1 0.00 0.00 0.00 68 1014.9
20260506144037 3 148 12.9 19.3 0.00 0.00 0.00 69 1014.9
20260506143507 3 153 11.3 16.1 0.00 0.00 0.00 69 1015.1
20260506143007 2 157 11.3 12.9 0.00 0.00 0.00 69 1015.2